Home   Weather   Detroit   Past weeks
Flag for USA

Past Weather in Detroit, Michigan, USA — Yesterday and Last 2 Weeks

Now
63 °F

Light rain. Mostly cloudy.


Feels Like: 63 °F
Forecast: 62 / 48 °F
Wind: 16 mph from South

Location: Detroit City Airport

Current Time: Oct 22, 2019 at 12:19:22 am

Latest Report: Oct 21, 2019 at 9:53 pm


Visibility: 10 mi

Pressure: 29.66 "Hg

Humidity: 93%

Dew Point: 61 °F

Location of DetroitLocation

Past Weather in Detroit — Graph

°F

Detroit Temperature Yesterday

Maximum temperature yesterday: 67 °F (at 1:53 pm)
Minimum temperature yesterday: 48 °F (at 3:53 am)
Average temperature yesterday: 57 °F

High & Low Weather Summary for the Past Weeks

 TemperatureHumidityPressure
High70 °F (Oct 10, 2:53 pm)100% (Oct 9, 5:53 am)30.29 "Hg (Oct 9, 5:53 am)
Low36 °F (Oct 15, 5:53 am)28% (Oct 13, 4:53 pm)29.58 "Hg (Oct 16, 2:53 pm)
Average53 °F70%29.98 "Hg
* Reported Oct 6 9:53 pm — Oct 21 9:53 pm, Detroit. Weather by CustomWeather, © 2019

Note: Actual official high and low records may vary slightly from our data, if they occured in-between our weather recording intervals... More about our weather records

Advertising

Detroit Weather History for the Previous 24 Hours

Scroll right to see more
 ConditionsComfort  
Time TempWeatherWind HumidityBarometerVisibility
9:53 pm
Mon, Oct 21
63 °FLight rain. Mostly cloudy.16 mph93%29.66 "Hg10 mi
8:53 pm63 °FLight rain. Overcast.10 mph81%29.67 "Hg10 mi
7:53 pm62 °FLight rain. Overcast.10 mph78%29.67 "Hg10 mi
6:53 pm61 °FLight rain. Overcast.9 mph78%29.69 "Hg10 mi
5:53 pm61 °FOvercast.16 mph78%29.70 "Hg10 mi
4:53 pm61 °FLight rain. Overcast.14 mph78%29.71 "Hg10 mi
3:53 pm64 °FLight rain. Mostly cloudy.13 mph68%29.75 "Hg7 mi
2:53 pm67 °FPassing clouds.14 mph53%29.78 "Hg10 mi
1:53 pm67 °FMostly cloudy.14 mph53%29.78 "Hg10 mi
12:53 pm66 °FOvercast.13 mph61%29.84 "Hg10 mi
11:53 am64 °FOvercast.10 mph73%29.87 "Hg10 mi
10:53 am61 °FSunny.10 mph81%29.88 "Hg10 mi
9:53 am57 °FOvercast.8 mph96%29.92 "Hg9 mi
8:53 am53 °FFog.6 mph100%29.92 "Hg4 mi
7:53 am50 °FFog.3 mph96%29.93 "Hg4 mi
6:53 am50 °FFog.3 mph96%29.97 "Hg6 mi
5:53 am48 °FFog.3 mph96%29.96 "Hg5 mi
4:53 am49 °FFog.3 mph93%29.96 "Hg5 mi
3:53 am48 °FFog.5 mph93%29.97 "Hg6 mi
2:53 am49 °FPassing clouds.5 mph93%29.98 "Hg7 mi
1:53 am50 °FClear.5 mph93%29.99 "Hg9 mi
12:53 am49 °FClear.3 mph93%29.98 "Hg9 mi
Weather by CustomWeather, © 2019

See weather overview